Tyler, TX

1:43 AM CDT on June 25, 2017 (GMT -0500)
Tyler Pounds

Weather History for KTYR - September, 2013

Change the Weather History Date:

Saturday, September 21, 2013

  Actual Average Record
Temperature  
Mean Temperature 74 °F 74 °F  
Max Temperature 84 °F 85 °F 100 °F (1939)
Min Temperature 63 °F 64 °F 45 °F (1983)
Degree Days  
Heating Degree Days 0 0  
Month to date heating degree days 0 0  
Since 1 July heating degree days 0 0  
Cooling Degree Days 9 10  
Month to date cooling degree days 402 267  
Year to date cooling degree days 2518 2189  
Growing Degree Days 23 (Base 50)    
Moisture  
Dew Point 59 °F    
Average Humidity 63    
Maximum Humidity 100    
Minimum Humidity 26    
Precipitation  
Precipitation T in 0.12 in 2.68 in (1979)
Month to date precipitation 5.41 2.40  
Year to date precipitation 25.02 31.66  
Snow  
Snow 0.00 in - - ()
Month to date snowfall 0.0  
Since 1 July snowfall 0.0  
Since 1 September snowfall 0.0  
Snow Depth 0.00 in    
Sea Level Pressure  
Sea Level Pressure 29.89 in    
Wind  
Wind Speed 9 mph (NNE)    
Max Wind Speed 17 mph    
Max Gust Speed 24 mph    
Visibility 10 miles    
Events Rain    
T = Trace of Precipitation, MM = Missing Value Source: NWS Daily Summary

Daily Weather History Graph

Daily Weather History Graph

Search for Another Location

Airport or City:

Trip Planner

Search our weather history database for the weather conditions in past years. The results will help you decide how hot, cold, wet, or windy it might be!

Date:

Astronomy

Sep. 21, 2013 Rise Set
Actual Time 7:09 AM CDT 7:19 PM CDT
Civil Twilight 6:44 AM CDT 7:43 PM CDT
Nautical Twilight 6:16 AM CDT 8:12 PM CDT
Astronomical Twilight 5:47 AM CDT 8:41 PM CDT
Moon 8:42 PM CDT (9/21) 9:18 AM CDT (9/21)
Length of Visible Light 12h 58m
Length of Day
12h 09m
Waning Gibbous, 94% of the Moon is Illuminated
Sep 21
Waning Gibbous
Sep 26
Last Quarter
Oct 4
New
Oct 11
First Quarter
Oct 18
Full

Hourly Weather History & Observations

Time (CDT) Temp. Heat Index Dew Point Humidity Pressure Visibility Wind Dir Wind Speed Gust Speed Precip Events Conditions
12:53 AM 70.0 °F - 69.1 °F 97% 29.88 in 10.0 mi North 10.4 mph - 0.01 in   Overcast
1:22 AM 69.8 °F - 69.8 °F 100% 29.89 in 8.0 mi North 8.1 mph - 0.00 in Rain Light Rain
1:34 AM 69.8 °F - 69.8 °F 100% 29.88 in 10.0 mi NNE 8.1 mph - 0.00 in   Overcast
1:49 AM 69.8 °F - 69.8 °F 100% 29.88 in 10.0 mi NNE 8.1 mph - 0.00 in   Overcast
1:53 AM 70.0 °F - 69.1 °F 97% 29.86 in 10.0 mi North 6.9 mph - 0.00 in   Overcast
2:51 AM 69.8 °F - 68.0 °F 94% 29.88 in 10.0 mi NNE 9.2 mph - N/A   Overcast
2:53 AM 70.0 °F - 68.0 °F 93% 29.87 in 10.0 mi North 10.4 mph - N/A   Overcast
3:53 AM 69.1 °F - 68.0 °F 96% 29.87 in 10.0 mi North 13.8 mph 17.3 mph N/A   Overcast
4:53 AM 69.1 °F - 66.9 °F 93% 29.87 in 10.0 mi North 8.1 mph - N/A   Overcast
5:26 AM 68.0 °F - 64.4 °F 88% 29.90 in 10.0 mi North 9.2 mph - N/A   Overcast
5:46 AM 66.2 °F - 62.6 °F 88% 29.90 in 10.0 mi North 9.2 mph - N/A   Overcast
5:53 AM 66.9 °F - 63.0 °F 87% 29.89 in 10.0 mi North 10.4 mph - N/A   Overcast
6:53 AM 66.0 °F - 61.0 °F 84% 29.90 in 10.0 mi North 10.4 mph - N/A   Overcast
7:26 AM 64.4 °F - 60.8 °F 88% 29.93 in 10.0 mi North 8.1 mph - N/A   Overcast
7:41 AM 64.4 °F - 60.8 °F 88% 29.93 in 10.0 mi North 9.2 mph - N/A   Overcast
7:53 AM 64.9 °F - 60.1 °F 84% 29.91 in 10.0 mi North 9.2 mph - N/A   Overcast
8:53 AM 66.0 °F - 59.0 °F 78% 29.92 in 10.0 mi North 10.4 mph - N/A   Overcast
9:23 AM 69.8 °F - 57.2 °F 64% 29.94 in 10.0 mi NNE 15.0 mph 20.7 mph N/A   Scattered Clouds
9:53 AM 70.0 °F - 57.0 °F 63% 29.94 in 10.0 mi NE 11.5 mph 20.7 mph N/A   Clear
10:53 AM 73.0 °F - 57.0 °F 57% 29.94 in 10.0 mi NE 13.8 mph 21.9 mph N/A   Clear
11:53 AM 75.9 °F - 57.0 °F 52% 29.93 in 10.0 mi NNE 12.7 mph - N/A   Clear
12:53 PM 79.0 °F - 57.0 °F 47% 29.91 in 10.0 mi NNE 11.5 mph - N/A   Clear
1:53 PM 81.0 °F 80.4 °F 53.1 °F 38% 29.89 in 10.0 mi North 12.7 mph 23.0 mph N/A   Clear
2:53 PM 82.0 °F - 51.1 °F 34% 29.86 in 10.0 mi NNE 12.7 mph 19.6 mph N/A   Clear
3:53 PM 82.9 °F - 48.0 °F 29% 29.85 in 10.0 mi NNE 11.5 mph 18.4 mph N/A   Clear
4:53 PM 82.9 °F - 45.0 °F 26% 29.84 in 10.0 mi NE 9.2 mph 23.0 mph N/A   Clear
5:53 PM 82.0 °F - 46.0 °F 28% 29.84 in 10.0 mi North 8.1 mph - N/A   Clear
6:53 PM 79.0 °F - 48.9 °F 35% 29.85 in 10.0 mi NNE 6.9 mph - N/A   Clear
7:53 PM 73.0 °F - 51.1 °F 46% 29.86 in 10.0 mi North 5.8 mph - N/A   Clear
8:53 PM 71.1 °F - 52.0 °F 51% 29.87 in 10.0 mi NNE 4.6 mph - N/A   Clear
9:53 PM 69.1 °F - 52.0 °F 54% 29.88 in 10.0 mi Calm Calm - N/A   Clear
10:53 PM 66.9 °F - 52.0 °F 59% 29.88 in 10.0 mi Calm Calm - N/A   Clear
11:53 PM 64.9 °F - 53.1 °F 65% 29.88 in 10.0 mi ENE 3.5 mph - N/A   Clear